Weather History for KCCR - September, 2013

Change the Weather History Date:

Wednesday, September 18, 2013

  Actual Average Record
Temperature  
Mean Temperature 69 °F 70 °F  
Max Temperature 85 °F 84 °F 103 °F (2000)
Min Temperature 53 °F 56 °F 49 °F (2012)
Degree Days  
Heating Degree Days 0    
Month to date heating degree days 0  
Since 1 July heating degree days 6  
Cooling Degree Days 4    
Month to date cooling degree days 126  
Year to date cooling degree days 802  
Growing Degree Days 19 (Base 50)    
Moisture  
Dew Point 45 °F    
Average Humidity 51    
Maximum Humidity 83    
Minimum Humidity 19    
Precipitation  
Precipitation 0.00 in - - ()
Month to date precipitation T  
Year to date precipitation 2.06  
Since 1 July precipitation T  
Sea Level Pressure  
Sea Level Pressure 29.82 in    
Wind  
Wind Speed 4 mph (SSW)    
Max Wind Speed 17 mph    
Max Gust Speed 29 mph    
Visibility 10 miles    
Events      
T = Trace of Precipitation, MM = Missing Value Source: NWS Daily Summary

Daily Weather History Graph

Daily Weather History Graph

Search for Another Location

Airport or City:

Trip Planner

Search our weather history database for the weather conditions in past years. The results will help you decide how hot, cold, wet, or windy it might be!

Date:

Astronomy

Sep. 18, 2013 Rise Set
Actual Time 6:52 AM PDT 7:10 PM PDT
Civil Twilight 6:26 AM PDT 7:37 PM PDT
Nautical Twilight 5:55 AM PDT 8:08 PM PDT
Astronomical Twilight 5:24 AM PDT 8:39 PM PDT
Moon 6:37 PM PDT (9/18) 6:01 AM PDT (9/18)
Length of Visible Light 13h 10m
Length of Day
12h 18m
Waxing Gibbous, 99% of the Moon is Illuminated
Sep 18
Waxing Gibbous
Sep 19
Full
Sep 26
Last Quarter
Oct 4
New
Oct 11
First Quarter

Hourly Weather History & Observations

Time (PDT) Temp. Dew Point Humidity Pressure Visibility Wind Dir Wind Speed Gust Speed Precip Events Conditions
12:53 AM 63.0 °F 48.0 °F 58% 29.84 in 10.0 mi SSW 5.8 mph - N/A   Clear
1:53 AM 57.9 °F 48.9 °F 72% 29.84 in 10.0 mi SE 3.5 mph - N/A   Clear
2:53 AM 57.9 °F 48.9 °F 72% 29.83 in 10.0 mi Calm Calm - N/A   Clear
3:53 AM 55.9 °F 48.9 °F 77% 29.83 in 10.0 mi Calm Calm - N/A   Clear
4:53 AM 54.0 °F 48.0 °F 80% 29.83 in 10.0 mi SSE 4.6 mph - N/A   Clear
5:53 AM 55.0 °F 48.9 °F 80% 29.85 in 10.0 mi Calm Calm - N/A   Clear
6:53 AM 54.0 °F 48.0 °F 80% 29.86 in 10.0 mi ESE 3.5 mph - N/A   Clear
7:53 AM 57.0 °F 48.9 °F 74% 29.87 in 10.0 mi South 3.5 mph - N/A   Clear
8:53 AM 61.0 °F 50.0 °F 67% 29.87 in 10.0 mi South 3.5 mph - N/A   Clear
9:53 AM 68.0 °F 48.0 °F 49% 29.88 in 10.0 mi Calm Calm - N/A   Clear
10:53 AM 75.0 °F 43.0 °F 32% 29.87 in 10.0 mi Variable 3.5 mph - N/A   Clear
11:53 AM 77.0 °F 41.0 °F 28% 29.84 in 10.0 mi Variable 3.5 mph - N/A   Clear
12:53 PM 79.0 °F 39.9 °F 25% 29.83 in 10.0 mi Calm Calm - N/A   Clear
1:53 PM 81.0 °F 37.9 °F 21% 29.81 in 10.0 mi Variable 3.5 mph - N/A   Clear
2:53 PM 84.9 °F 37.0 °F 18% 29.78 in 10.0 mi NW 12.7 mph 17.3 mph N/A   Clear
3:53 PM 84.0 °F 37.9 °F 19% 29.77 in 10.0 mi NW 12.7 mph - N/A   Clear
4:53 PM 81.0 °F 44.1 °F 27% 29.77 in 10.0 mi West 11.5 mph - N/A   Clear
5:53 PM 79.0 °F 44.1 °F 29% 29.77 in 10.0 mi West 11.5 mph - N/A   Clear
6:53 PM 75.0 °F 45.0 °F 34% 29.78 in 10.0 mi WSW 10.4 mph - N/A   Clear
7:53 PM 72.0 °F 44.1 °F 37% 29.79 in 10.0 mi WSW 8.1 mph - N/A   Clear
8:53 PM 69.1 °F 43.0 °F 39% 29.80 in 10.0 mi SSE 4.6 mph - N/A   Clear
9:53 PM 66.0 °F 43.0 °F 43% 29.80 in 10.0 mi SSW 5.8 mph - N/A   Clear
10:53 PM 63.0 °F 45.0 °F 52% 29.80 in 10.0 mi Calm Calm - N/A   Clear
11:53 PM 64.0 °F 44.1 °F 48% 29.80 in 10.0 mi Calm Calm - N/A   Clear